Location: Invercargill
(46.4000°S, 168.3500°E)
Time: 09:37:14
(UTC+12:00)

Cosmos 2292 Rocket - Pass Details

Date: 14 May 2021
Orbit: 379 x 1447 km, 83.0° (Epoch: 15 June)

Event Time Altitude Azimuth Distance (km) Brightness Sun altitude
Rises 19:21:59 0° 358° (N) 2,677 6.9 -20.1°
Reaches altitude 10° 19:23:52 10° 359° (N) 1,906 6.1 -20.4°
Maximum altitude 19:28:03 78° 84° (E) 733 3.7 -21.1°
Drops below altitude 10° 19:33:47 10° 169° (S) 2,581 6.6 -22.1°
Sets 19:36:39 0° 170° (S) 3,716 7.4 -22.6°
